Showing default

COSMOS 2339, 24727

Orbit data source: Space-Track

COSMOS 2339, 24727 is a payload satellite owned by VKS (CIS) in LEO that was launched on Fri, 14 Feb 1997 UTC via a TSIKLON-3 launch vehicle from the Plesetsk Missile And Space Complex (PKMTR). Payload-class satellites include a variety of spacecraft equipped with specific instruments for various scientific and technological missions. These include communications satellites like Starlink; space stations such as the ISS; scientific satellites like the Hubble; Earth observation satellites from companies like Planet Labs, Umbra, and HawkEye 360; GPS; miniature CubeSats for education and research; and military/defense satellites.

Loading next visibility...
Identifier
24727, 1997-006C
Orbit
LEO
Country
Flag of CISCIS
Related business
Manufacturer
NPO PM
Mission
Non-operational Defense Communications
Bus & Motor
STRELA-3, Unknown motor
Mass
225 kg wet, 225 kg dry
Launch date (UTC)
1997-02-14 (29 years ago)
Launch vehicle
TSIKLON-3
Launch site
Plesetsk Missile And Space Complex (PKMTR)
Object type
Payload
Rocket body
Debris
Shape & HBR
Cyl + 1 Ant, 3.5 m
Radar Cross Section
1.583 m², Large (>1 m²)

Expand to show TLE details & history
Last TLE update: 23 hours ago

TLE from 23 hours ago
0 COSMOS 2339
1 24727U 97006C   25259.97431106  .00000006  00000-0 -25866-4 0  9996
2 24727  82.6000  69.0929 0000323  85.7929  28.8866 12.62372306317105
Epoch: 2025-09-16T23:23Z
TLE epoch observation values (Epoch: 2025-09-16T23:23:00.475Z)
Latitude
64.38191°
Longitude
-113.45165°
Altitude
1,424.014 km
Speed
7.155 km/s
True Right ascension
15h 33m 49s
True Declination
64° 15' 33"
Sunlit
Object was in daylight at epoch
Visualization orbit readout
Latitude
Unknown
Longitude
Unknown
Altitude
Unknown
Speed
Unknown
Apparent Right ascension
Unknown
Apparent Declination
Unknown
Sunlit
N/A
Visualization observer readout
Local Sidereal Time
14:48:50
Azimuth
Unknown
Elevation
Unknown
Doppler factor
Unknown
Orbital elements
Apogee altitude
1,410.739 km
Perigee altitude
1,410.236 km
Semi-major axis
7,788.625 km
Eccentricity
0.00003
Inclination
82.6°
RAAN
69.0929°
Arg. of periapsis
85.7929°
True anomaly
28.88839°
Mean anomaly
28.8866°
Eccentric anomaly
28.88749°
Mean motion
3.15756 °/min
Orbital period
114.01 mins
BSTAR
-0.000025866
Loading maneuver chart data...
Computing Atmospheric mass density...
Loading historical data...
Loading historical data...
Loading historical data...
Loading historical data...
Loading historical data...
Loading historical data...
Loading historical data...

Documentation

Showing up to 5 results
|